Dati Storici

Data ora Umidita' aria (%) Temperatura aria (°C) Rad globale (W/m²) Gonioanemometro (°) Tacoanemometro (m/s) Pioggia (mm)
01-11-2012 12:10 93.7 % 9.522 65.303 269.384 1.519 0
01-11-2012 12:00 93.5 % 9.614 53.76 216.896 0.887 0
01-11-2012 11:50 93.2 % 9.495 86.599 264.922 1.436 0
01-11-2012 11:40 92.9 % 9.484 62.902 277.506 1.819 0
01-11-2012 11:30 92.6 % 9.428 57.537 4.016 0.392 0
01-11-2012 11:20 92.3 % 9.41 71.245 294.233 0.824 0
01-11-2012 11:10 92 % 9.452 60.145 13.842 0.561 0
01-11-2012 11:00 91.8 % 9.448 86.762 6.482 0.796 0
01-11-2012 10:50 91.9 % 9.365 62.219 25.641 2.399 0
01-11-2012 10:40 91.7 % 9.298 44.673 37.6 3.705 0
01-11-2012 10:30 91.1 % 9.327 47.842 354.713 2.527 0
01-11-2012 10:20 90.9 % 9.436 42.303 57.034 3.176 0
01-11-2012 10:10 90.2 % 9.489 47.167 31.024 1.119 0
01-11-2012 10:00 89.7 % 9.638 89.471 14.277 5.637 0
01-11-2012 09:50 89.4 % 9.663 60.461 19.46 1.884 0
01-11-2012 09:40 88.6 % 9.691 53.556 43.156 3.532 0
01-11-2012 09:30 87.6 % 9.822 29.305 59.65 2.642 0
01-11-2012 09:20 87.8 % 9.984 13.288 30.104 1.653 0
01-11-2012 09:10 88.5 % 10.046 20.127 124.668 1.401 0
01-11-2012 09:00 89.2 % 9.923 30.885 74.31 2.386 0

I dati sono presentati in modo automatico a scopo informativo. In seguito a verifica i dati possono subire modifiche o essere invalidati e non riportati negli archivi definitivi.